Torna al catalogo

ONEWEB-0282

AttivoComunicazioniPO
NORAD 49000·PAYLOAD·🇬🇧 United Kingdom

Lanciato Jul 1, 2021 da Vostochny Cosmodrome

Loading…

Prossimi Passaggi (prossime 24 ore)

TLE

AggiornatoSource: CelesTrak SupGP

Epoca: Sep 14, 2026, 15:04 UTC

1 49000C 21060AK  26257.62827963  .00000564  00000+0  14780-2 0  2570
2 49000  87.9156 211.0197 0002033  76.0654 319.2181 13.16595991    13

Traccia ONEWEB-0282 in tempo reale con AllMySat

Download on the App Store